Current weather by "City, St" or "zip code"  
 

Current Conditions: Cleveland Hopkins International Airport, OH

Overcast


26.0 F

Last Updated on Jan 19 2022, 10:51 pm EST
Humidity: 66%
Wind Speed: NW 13.8 mph
Barometer 30.12 in
Dewpoint: 16.0 F
Visibility: 10.00 mi
Precip: --
Heat Index: NA
Wind Chill: 14 F
Current conditions at:

Cleveland Hopkins International Airport, OH (KCLE)

Lat: 41.40569 Lon: 81.85193

Local Radar Image active severe weather and emergency alerts image image weather storm and storm spotter reports image weather observation monitoring service image
Local
Radar
Active
Alerts
Storm Reports Obs
Monitoring

Sign-up For Email & Text Message Weather Alert Notification Services



Advertise Here

Observation History for Cleveland Hopkins International Airport, OH


Time Wind
(mph)
Vis
(mi)
Weather Precip (in) Temperature (F) Relative
Humidity
Wind
Chill
(F)
Heat
Index
(F)
Pressure
Air Dwpt altimeter
(in)
sea level
(mb)
Rmks
10:51 pm EST NW 13.8 10.00 Overcast -- 26.0 16.0 66% 14 NA 30.12 1022.4
9:51 pm EST NW 11.5 10.00 Overcast -- 27.0 18.0 69% 17 NA 30.11 1022.2
8:51 pm EST NW 11.5 10.00 Overcast -- 28.0 19.0 69% 18 NA 30.09 1021.3
7:51 pm EST NW 19.6 G 23.0 10.00 Overcast -- 30.0 21.9 72% 17 NA 30.05 1020.2
6:51 pm EST NW 16.1 10.00 Overcast -- 33.0 24.1 70% 22 NA 30.02 1018.8
5:51 pm EST NW 16.1 G 23.0 10.00 Overcast -- 36.0 25.0 64% 26 NA 29.97 1017.0
4:51 pm EST W 15.0 9.00 Overcast -- 39.0 27.0 62% 31 NA 29.93 1015.7
3:51 pm EST W 11.5 10.00 Overcast -- 41.0 30.0 65% 34 NA 29.89 1014.5
2:51 pm EST W 9.2 10.00 Overcast -- 41.0 33.1 73% 35 NA 29.86 1013.6
1:51 pm EST SW 18.4 10.00 Partly Cloudy -- 42.0 32.0 68% 33 NA 29.85 1012.9
12:51 pm EST SW 21.9 G 26.5 10.00 Partly Cloudy and Breezy -- 41.0 32.0 70% 31 NA 29.83 1012.4
11:51 am EST SW 20.7 G 27.6 10.00 Overcast and Breezy -- 41.0 32.0 70% 32 NA 29.85 1012.9
10:51 am EST SW 16.1 G 28.8 10.00 Overcast -- 42.0 32.0 68% 34 NA 29.83 1012.5
9:51 am EST SW 16.1 G 25.3 10.00 Partly Cloudy -- 41.0 32.0 70% 33 NA 29.82 1012.0
8:51 am EST SW 18.4 G 24.2 10.00 Mostly Cloudy -- 42.0 32.0 68% 33 NA 29.80 1011.2
7:51 am EST S 13.8 10.00 Overcast -- 40.0 30.9 70% 32 NA 29.78 1010.7
6:51 am EST SW 15.0 10.00 Overcast -- 38.0 28.9 70% 29 NA 29.76 1010.1
5:51 am EST S 13.8 10.00 Mostly Cloudy -- 36.0 28.0 73% 27 NA 29.75 1009.6
4:51 am EST S 18.4 G 23.0 10.00 Mostly Cloudy -- 35.0 26.1 70% 24 NA 29.75 1009.9
3:51 am EST S 16.1 G 24.2 10.00 Partly Cloudy -- 35.0 26.1 70% 25 NA 29.78 1010.7
2:51 am EST S 17.3 10.00 Mostly Cloudy -- 33.0 24.1 70% 22 NA 29.79 1011.2
1:51 am EST S 17.3 10.00 Mostly Cloudy -- 32.0 23.0 69% 21 NA 29.81 1011.8
12:51 am EST S 18.4 G 29.9 10.00 Overcast -- 32.0 23.0 69% 20 NA 29.82 1012.3
11:51 pm EST S 20.7 G 31.1 9.00 Overcast and Breezy -- 31.0 21.9 69% 18 NA 29.84 1012.8

Regional Weather Observation


Cleveland Hopkins International Airport, OH (KCLE)

Overcast
26.0 F

Cleveland, Burke Lakefront Airport, OH (KBKL)

Overcast and Breezy
28.0 F

Cleveland / Cuyahoga, OH (KCGF)

Overcast
27.0 F

Willoughby, OH (KLNN)

Overcast
26.0 F

Port Clinton Carl R Keller Field Airport, OH (KPCW)

Overcast
23.0 F

Akron, Akron Fulton International Airport, OH (KAKR)

Overcast
29.0 F

Advertise Here


Advertise Here